Change the Weather History Date:

Monday, January 14, 2013

  Actual Average Record
Temperature  
Mean Temperature 22 °F -  
Max Temperature 32 °F 2 °F 33 °F (1997)
Min Temperature 12 °F -6 °F -40 °F (2012)
Degree Days  
Heating Degree Days 43    
Moisture  
Dew Point 19 °F    
Average Humidity 84    
Maximum Humidity 93    
Minimum Humidity 73    
Precipitation  
Precipitation 0.00 in - - ()
Sea Level Pressure  
Sea Level Pressure 29.38 in    
Wind  
Wind Speed 15 mph (SSE)    
Max Wind Speed 24 mph    
Max Gust Speed 31 mph    
Visibility 6 miles    
Events      
Averages and records for this station are not official NWS values.
T = Trace of Precipitation, MM = Missing Value Source: NWS Daily Summary

Daily Weather History Graph

Daily Weather History Graph

Search for Another Location

Airport or City:

Trip Planner

Search our weather history database for the weather conditions in past years. The results will help you decide how hot, cold, wet, or windy it might be!

Date:

Astronomy

Jan. 14, 2013 Rise Set
Actual Time 11:44 AM AKST 3:54 PM AKST
Civil Twilight 10:20 AM AKST 5:18 PM AKST
Nautical Twilight 9:07 AM AKST 6:32 PM AKST
Astronomical Twilight 8:03 AM AKST 7:36 PM AKST
Moon 11:10 AM AKST (1/14) 10:19 PM AKST (1/14)
Length of Visible Light 6h 58m
Length of Day
4h 10m
Waxing Crescent, 12% of the Moon is Illuminated
Jan 14
Waxing Crescent
Jan 18
First Quarter
Jan 26
Full
Feb 3
Last Quarter
Feb 9
New

Hourly Weather History & Observations

Time (AKST) Temp. Windchill Dew Point Humidity Pressure Visibility Wind Dir Wind Speed Gust Speed Precip Events Conditions
12:16 AM 32.0 °F 22.1 °F 26.6 °F 80% 29.39 in 10.0 mi SE 13.8 mph - N/A   Overcast
12:36 AM 32.0 °F 23.0 °F 26.6 °F 80% 29.38 in 10.0 mi ESE 11.5 mph - N/A   Overcast
12:56 AM 32.0 °F 22.1 °F 26.6 °F 80% 29.37 in 10.0 mi ESE 13.8 mph - N/A   Overcast
1:16 AM 32.0 °F 23.6 °F 26.6 °F 80% 29.38 in 10.0 mi ESE 10.4 mph - N/A   Overcast
1:36 AM 30.2 °F 20.2 °F 26.6 °F 86% 29.38 in 10.0 mi East 12.7 mph - N/A   Overcast
1:56 AM 30.2 °F 21.3 °F 24.8 °F 80% 29.37 in 10.0 mi ENE 10.4 mph - N/A   Overcast
2:16 AM 30.2 °F 19.3 °F 26.6 °F 86% 29.37 in 10.0 mi East 15.0 mph - N/A   Overcast
2:36 AM 30.2 °F 20.8 °F 26.6 °F 86% 29.36 in 10.0 mi ENE 11.5 mph - N/A   Mostly Cloudy
2:56 AM 30.2 °F 20.8 °F 26.6 °F 86% 29.35 in 5.0 mi East 11.5 mph - N/A   Mostly Cloudy
3:16 AM 30.2 °F 18.5 °F 26.6 °F 86% 29.34 in 10.0 mi East 17.3 mph - N/A   Overcast
3:36 AM 30.2 °F 19.8 °F 26.6 °F 86% 29.34 in 7.0 mi ENE 13.8 mph - N/A   Overcast
3:56 AM 30.2 °F 18.9 °F 26.6 °F 86% 29.33 in 9.0 mi East 16.1 mph - N/A   Overcast
4:16 AM 30.2 °F 20.8 °F 24.8 °F 80% 29.32 in 10.0 mi NE 11.5 mph - N/A   Overcast
4:36 AM 28.4 °F 16.6 °F 24.8 °F 86% 29.29 in 4.0 mi ENE 16.1 mph - N/A   Overcast
4:56 AM 28.4 °F 15.8 °F 26.6 °F 93% 29.28 in 3.0 mi ENE 18.4 mph - N/A   Overcast
5:16 AM 28.4 °F 16.2 °F 26.6 °F 93% 29.27 in 5.0 mi ENE 17.3 mph - N/A   Overcast
5:36 AM 28.4 °F 16.6 °F 24.8 °F 86% 29.26 in 1.0 mi ENE 16.1 mph - N/A   Overcast
5:56 AM 28.4 °F 16.2 °F 26.6 °F 93% 29.25 in 0.8 mi ENE 17.3 mph - N/A   Mostly Cloudy
6:16 AM 28.4 °F 15.8 °F 24.8 °F 86% 29.23 in 1.5 mi ENE 18.4 mph - N/A   Scattered Clouds
6:36 AM 28.4 °F 16.2 °F 26.6 °F 93% 29.22 in 1.5 mi ENE 17.3 mph - N/A   Clear
6:56 AM 28.4 °F 16.6 °F 26.6 °F 93% 29.21 in 1.8 mi ENE 16.1 mph - N/A   Clear
7:16 AM 28.4 °F 16.2 °F 26.6 °F 93% 29.20 in 1.2 mi ENE 17.3 mph - N/A   Mostly Cloudy
7:36 AM 28.4 °F 16.2 °F 24.8 °F 86% 29.19 in 0.8 mi ENE 17.3 mph - N/A   Mostly Cloudy
7:56 AM 28.4 °F 16.6 °F 26.6 °F 93% 29.17 in 0.8 mi ENE 16.1 mph - N/A   Mostly Cloudy
8:16 AM 28.4 °F 15.4 °F 26.6 °F 93% 29.15 in 1.2 mi ENE 19.6 mph - N/A   Scattered Clouds
8:36 AM 28.4 °F 16.2 °F 26.6 °F 93% 29.13 in 1.5 mi ENE 17.3 mph - N/A   Scattered Clouds
8:56 AM 28.4 °F 17.0 °F 26.6 °F 93% 29.12 in 1.5 mi ENE 15.0 mph - N/A   Clear
9:16 AM 28.4 °F 14.7 °F 26.6 °F 93% 29.13 in 1.0 mi East 21.9 mph - N/A   Mostly Cloudy
9:36 AM 28.4 °F 16.6 °F 26.6 °F 93% 29.13 in 1.5 mi ENE 16.1 mph - N/A   Overcast
9:56 AM 28.4 °F 17.0 °F 26.6 °F 93% 29.13 in 1.2 mi ENE 15.0 mph - N/A   Overcast
10:16 AM 28.4 °F 17.5 °F 26.6 °F 93% 29.13 in 1.5 mi East 13.8 mph - N/A   Mostly Cloudy
10:36 AM 28.4 °F 18.5 °F 26.6 °F 93% 29.12 in 2.5 mi East 11.5 mph - N/A   Partly Cloudy
10:56 AM 30.2 °F 22.6 °F 26.6 °F 86% 29.14 in 3.0 mi ESE 8.1 mph - N/A   Scattered Clouds
11:16 AM 30.2 °F 21.9 °F 26.6 °F 86% 29.14 in 3.0 mi SSE 9.2 mph - N/A   Mostly Cloudy
11:36 AM 28.4 °F 18.0 °F 26.6 °F 93% 29.15 in 3.0 mi SSW 12.7 mph - N/A   Overcast
11:56 AM 28.4 °F 16.2 °F 24.8 °F 86% 29.16 in 2.5 mi SW 17.3 mph 21.9 mph N/A   Mostly Cloudy
12:16 PM 28.4 °F 15.4 °F 24.8 °F 86% 29.17 in 0.8 mi SW 19.6 mph 25.3 mph N/A   Unknown
12:36 PM 28.4 °F 14.1 °F 24.8 °F 86% 29.19 in 0.5 mi WSW 24.2 mph 29.9 mph N/A   Mostly Cloudy
12:56 PM 26.6 °F 12.4 °F 24.8 °F 93% 29.22 in 0.8 mi WSW 21.9 mph 31.1 mph N/A   Overcast
1:16 PM 26.6 °F 12.0 °F 23.0 °F 86% 29.24 in 0.8 mi WSW 23.0 mph 31.1 mph N/A   Overcast
1:36 PM 24.8 °F 11.1 °F 21.2 °F 86% 29.27 in 1.8 mi WSW 18.4 mph 27.6 mph N/A   Overcast
1:56 PM 24.8 °F 10.3 °F 19.4 °F 80% 29.29 in 4.0 mi WSW 20.7 mph 27.6 mph N/A   Overcast
2:16 PM 23.0 °F 8.7 °F 19.4 °F 86% 29.32 in 7.0 mi WSW 18.4 mph 23.0 mph N/A   Overcast
2:36 PM 21.2 °F 6.4 °F 17.6 °F 86% 29.34 in 7.0 mi WSW 18.4 mph 25.3 mph N/A   Overcast
2:56 PM 21.2 °F 6.4 °F 15.8 °F 80% 29.37 in 8.0 mi SW 18.4 mph 27.6 mph N/A   Overcast
3:16 PM 21.2 °F 6.0 °F 15.8 °F 80% 29.39 in 5.0 mi SW 19.6 mph 27.6 mph N/A   Overcast
3:36 PM 19.4 °F 3.6 °F 15.8 °F 86% 29.41 in 5.0 mi SW 19.6 mph 27.6 mph N/A   Overcast
3:56 PM 19.4 °F 5.0 °F 15.8 °F 86% 29.43 in 10.0 mi WSW 16.1 mph 21.9 mph N/A   Overcast
4:16 PM 19.4 °F 4.1 °F 14.0 °F 80% 29.45 in 10.0 mi WSW 18.4 mph - N/A   Overcast
4:36 PM 17.6 °F 2.7 °F 12.2 °F 79% 29.47 in 9.0 mi SW 16.1 mph - N/A   Overcast
4:56 PM 17.6 °F 0.1 °F 10.4 °F 73% 29.49 in 6.0 mi SW 23.0 mph 26.5 mph N/A   Overcast
5:16 PM 15.8 °F -1.9 °F 10.4 °F 79% 29.50 in 5.0 mi SW 21.9 mph 26.5 mph N/A   Overcast
5:36 PM 15.8 °F -1.5 °F 10.4 °F 79% 29.53 in 7.0 mi SW 20.7 mph 28.8 mph N/A   Overcast
5:56 PM 15.8 °F -0.6 °F 10.4 °F 79% 29.54 in 10.0 mi SW 18.4 mph 25.3 mph N/A   Overcast
6:16 PM 15.8 °F -0.2 °F 10.4 °F 79% 29.56 in 10.0 mi SW 17.3 mph 23.0 mph N/A   Overcast
6:36 PM 15.8 °F -0.2 °F 10.4 °F 79% 29.57 in 10.0 mi WSW 17.3 mph - N/A   Overcast
6:56 PM 15.8 °F 0.3 °F 10.4 °F 79% 29.59 in 10.0 mi SW 16.1 mph 19.6 mph N/A   Overcast
7:16 PM 15.8 °F 2.7 °F 8.6 °F 73% 29.61 in 10.0 mi SW 11.5 mph 17.3 mph N/A   Overcast
7:36 PM 15.8 °F 2.1 °F 8.6 °F 73% 29.63 in 10.0 mi SSW 12.7 mph - N/A   Overcast
7:56 PM 15.8 °F 1.4 °F 8.6 °F 73% 29.63 in 10.0 mi SW 13.8 mph - N/A   Overcast
8:16 PM 15.8 °F 1.4 °F 8.6 °F 73% 29.65 in 10.0 mi SSW 13.8 mph 18.4 mph N/A   Overcast
8:36 PM 14.0 °F -0.8 °F 8.6 °F 79% 29.66 in 10.0 mi SSW 13.8 mph - N/A   Overcast
8:56 PM 14.0 °F -1.4 °F 6.8 °F 73% 29.67 in 10.0 mi SSW 15.0 mph - N/A   Overcast
9:16 PM 14.0 °F -2.0 °F 8.6 °F 79% 29.68 in 10.0 mi SSW 16.1 mph 21.9 mph N/A   Overcast
9:36 PM 14.0 °F -3.0 °F 6.8 °F 73% 29.70 in 10.0 mi SSW 18.4 mph 23.0 mph N/A   Overcast
9:56 PM 12.2 °F -4.8 °F 6.8 °F 79% 29.71 in 10.0 mi SSW 17.3 mph 23.0 mph N/A   Overcast
10:16 PM 12.2 °F -5.8 °F 6.8 °F 79% 29.73 in 10.0 mi SW 19.6 mph 25.3 mph N/A   Overcast
10:36 PM 12.2 °F -6.3 °F 6.8 °F 79% 29.74 in 9.0 mi SW 20.7 mph 26.5 mph N/A   Overcast
10:56 PM 12.2 °F -5.8 °F 5.0 °F 73% 29.74 in 10.0 mi SW 19.6 mph 26.5 mph N/A   Overcast
11:16 PM 12.2 °F -4.3 °F 5.0 °F 73% 29.76 in 10.0 mi SW 16.1 mph 24.2 mph N/A   Overcast
11:36 PM 12.2 °F -5.8 °F 5.0 °F 73% 29.77 in 10.0 mi SW 19.6 mph 25.3 mph N/A   Overcast
11:56 PM 12.2 °F -3.7 °F 5.0 °F 73% 29.79 in 10.0 mi SW 15.0 mph 19.6 mph N/A   Overcast